TimeEST,TemperatureF,Dew PointF,Humidity,Sea Level PressureIn,VisibilityMPH,Wind Direction,Wind SpeedMPH,Gust SpeedMPH,PrecipitationIn,Events,Conditions,WindDirDegrees,DateUTC
12:02 AM,64.4,62.6,94,29.99,10.0,SE,3.5,-,N/A,,Scattered Clouds,130,2012-12-10 05:02:00
12:25 AM,64.4,60.8,88,29.98,1.8,Calm,Calm,-,N/A,,Clear,0,2012-12-10 05:25:00
12:39 AM,64.4,60.8,88,29.97,0.8,SE,4.6,-,N/A,,Clear,140,2012-12-10 05:39:00
12:48 AM,62.6,60.8,94,29.97,1.5,SSE,3.5,-,N/A,,Clear,150,2012-12-10 05:48:00
12:53 AM,63.0,61.0,93,29.96,0.8,SSE,3.5,-,N/A,,Clear,160,2012-12-10 05:53:00
1:04 AM,62.6,60.8,94,29.96,0.2,Calm,Calm,-,N/A,Fog,Fog,0,2012-12-10 06:04:00
1:53 AM,62.1,60.1,93,29.94,0.5,Calm,Calm,-,N/A,Fog,Fog,0,2012-12-10 06:53:00
2:17 AM,62.6,60.8,94,29.94,0.2,Calm,Calm,-,N/A,Fog,Fog,0,2012-12-10 07:17:00
2:53 AM,64.0,61.0,90,29.93,0.2,Calm,Calm,-,N/A,Fog,Fog,0,2012-12-10 07:53:00
3:53 AM,64.9,62.1,90,29.91,0.2,Calm,Calm,-,N/A,Fog,Fog,0,2012-12-10 08:53:00
4:04 AM,64.4,62.6,94,29.91,0.2,West,3.5,-,N/A,Fog,Fog,270,2012-12-10 09:04:00
4:33 AM,64.4,62.6,94,29.91,0.2,Calm,Calm,-,N/A,Fog,Fog,0,2012-12-10 09:33:00
4:53 AM,64.0,62.1,93,29.89,0.2,Calm,Calm,-,N/A,Fog,Fog,0,2012-12-10 09:53:00
5:53 AM,64.0,62.1,93,29.89,0.2,South,4.6,-,N/A,Fog,Fog,190,2012-12-10 10:53:00
6:05 AM,64.4,62.6,94,29.89,0.8,South,4.6,-,N/A,,Mist,190,2012-12-10 11:05:00
6:53 AM,64.0,62.1,93,29.89,1.0,SW,4.6,-,N/A,,Mist,230,2012-12-10 11:53:00
7:09 AM,64.4,62.6,94,29.90,2.5,SW,4.6,-,N/A,,Overcast,220,2012-12-10 12:09:00
7:16 AM,64.4,62.6,94,29.90,3.0,SW,5.8,-,N/A,,Overcast,220,2012-12-10 12:16:00
7:28 AM,64.4,62.6,94,29.89,1.8,SSW,5.8,-,N/A,,Overcast,210,2012-12-10 12:28:00
7:44 AM,64.4,62.6,94,29.89,0.8,SW,5.8,-,N/A,,Overcast,220,2012-12-10 12:44:00
7:53 AM,64.9,62.1,90,29.89,0.5,SSW,6.9,-,N/A,Fog,Fog,210,2012-12-10 12:53:00
8:01 AM,64.4,62.6,94,29.89,0.2,SSW,6.9,-,N/A,Fog,Fog,210,2012-12-10 13:01:00
8:30 AM,64.4,62.6,94,29.89,0.5,SW,6.9,-,N/A,Fog,Fog,220,2012-12-10 13:30:00
8:42 AM,64.4,62.6,94,29.89,1.8,SW,6.9,-,N/A,,Overcast,220,2012-12-10 13:42:00
8:50 AM,66.2,62.6,88,29.89,2.5,SW,5.8,-,N/A,,Overcast,220,2012-12-10 13:50:00
8:53 AM,66.0,63.0,90,29.88,3.0,SW,8.1,-,N/A,,Overcast,220,2012-12-10 13:53:00
9:20 AM,66.2,62.6,88,29.89,5.0,SW,6.9,-,N/A,,Overcast,220,2012-12-10 14:20:00
9:53 AM,68.0,62.1,81,29.88,8.0,SSW,10.4,-,N/A,,Mostly Cloudy,200,2012-12-10 14:53:00
10:01 AM,68.0,60.8,78,29.89,9.0,SW,13.8,-,N/A,,Scattered Clouds,220,2012-12-10 15:01:00
10:53 AM,71.1,59.0,66,29.87,10.0,SW,10.4,-,N/A,,Clear,220,2012-12-10 15:53:00
11:53 AM,73.0,55.9,55,29.84,10.0,WSW,13.8,18.4,N/A,,Scattered Clouds,240,2012-12-10 16:53:00
12:53 PM,73.9,55.9,53,29.82,10.0,SW,13.8,20.7,N/A,,Mostly Cloudy,230,2012-12-10 17:53:00
1:53 PM,75.0,57.0,53,29.79,10.0,WSW,11.5,-,N/A,,Scattered Clouds,240,2012-12-10 18:53:00
2:53 PM,73.9,57.0,55,29.77,10.0,SSW,8.1,-,N/A,,Clear,210,2012-12-10 19:53:00
3:53 PM,73.9,57.0,55,29.76,10.0,SSW,15.0,20.7,N/A,,Clear,210,2012-12-10 20:53:00
4:53 PM,72.0,57.9,61,29.76,10.0,SSW,8.1,-,N/A,,Clear,200,2012-12-10 21:53:00
5:53 PM,70.0,57.9,65,29.76,10.0,South,9.2,-,N/A,,Clear,180,2012-12-10 22:53:00
6:53 PM,68.0,57.9,70,29.79,10.0,SSW,5.8,-,N/A,,Clear,200,2012-12-10 23:53:00
7:53 PM,66.0,57.9,75,29.78,10.0,South,4.6,-,N/A,,Clear,190,2012-12-11 00:53:00
8:53 PM,66.0,57.9,75,29.77,10.0,SSW,4.6,-,N/A,,Partly Cloudy,210,2012-12-11 01:53:00
9:53 PM,63.0,57.9,84,29.78,10.0,West,4.6,-,N/A,,Scattered Clouds,260,2012-12-11 02:53:00
10:53 PM,63.0,57.9,84,29.77,10.0,Calm,Calm,-,N/A,,Clear,0,2012-12-11 03:53:00
11:53 PM,61.0,57.0,87,29.76,10.0,SSW,4.6,-,N/A,,Partly Cloudy,210,2012-12-11 04:53:00